TimeCDT,TemperatureF,Dew PointF,Humidity,Sea Level PressureIn,VisibilityMPH,Wind Direction,Wind SpeedMPH,Gust SpeedMPH,PrecipitationIn,Events,Conditions,WindDirDegrees,DateUTC
12:15 AM,56.8,56.8,100,30.07,10.0,Calm,Calm,-,N/A,,Clear,0,2013-05-08 05:15:00
12:35 AM,56.8,56.8,100,30.07,10.0,Calm,Calm,-,N/A,,Clear,0,2013-05-08 05:35:00
12:55 AM,56.5,56.5,100,30.07,10.0,South,4.6,-,N/A,,Clear,180,2013-05-08 05:55:00
1:15 AM,58.8,58.5,99,30.07,10.0,South,3.5,-,N/A,,Clear,180,2013-05-08 06:15:00
1:35 AM,56.8,56.8,100,30.07,10.0,Calm,Calm,-,N/A,,Clear,0,2013-05-08 06:35:00
1:55 AM,56.3,56.3,100,30.06,10.0,Calm,Calm,-,N/A,,Clear,0,2013-05-08 06:55:00
2:15 AM,55.6,55.6,100,30.06,10.0,Calm,Calm,-,N/A,,Clear,0,2013-05-08 07:15:00
2:35 AM,55.2,55.2,100,30.06,10.0,Calm,Calm,-,N/A,,Clear,0,2013-05-08 07:35:00
2:55 AM,54.3,54.3,100,30.06,10.0,Calm,Calm,-,N/A,,Clear,0,2013-05-08 07:55:00
3:15 AM,54.7,54.7,100,30.06,10.0,Calm,Calm,-,N/A,,Clear,0,2013-05-08 08:15:00
3:35 AM,53.8,53.8,100,30.05,10.0,Calm,Calm,-,N/A,,Clear,0,2013-05-08 08:35:00
3:55 AM,53.1,53.1,100,30.06,10.0,Calm,Calm,-,N/A,,Clear,0,2013-05-08 08:55:00
4:15 AM,52.9,52.9,100,30.05,10.0,Calm,Calm,-,N/A,,Clear,0,2013-05-08 09:15:00
4:35 AM,53.4,53.4,100,30.06,10.0,Calm,Calm,-,N/A,,Clear,0,2013-05-08 09:35:00
4:55 AM,52.5,52.5,100,30.05,10.0,Calm,Calm,-,N/A,,Clear,0,2013-05-08 09:55:00
5:15 AM,52.0,52.0,100,30.05,10.0,Calm,Calm,-,N/A,,Clear,0,2013-05-08 10:15:00
5:35 AM,51.8,51.8,100,30.06,10.0,Calm,Calm,-,N/A,,Clear,0,2013-05-08 10:35:00
5:55 AM,51.3,51.3,100,30.06,10.0,Calm,Calm,-,N/A,,Clear,0,2013-05-08 10:55:00
6:15 AM,52.5,52.5,100,30.06,10.0,South,3.5,-,N/A,,Clear,180,2013-05-08 11:15:00
6:35 AM,51.4,51.4,100,30.07,10.0,Calm,Calm,-,N/A,,Clear,0,2013-05-08 11:35:00
7:15 AM,57.0,57.0,100,30.08,10.0,SSW,4.6,-,N/A,,Clear,210,2013-05-08 12:15:00
7:35 AM,60.1,57.9,93,30.09,10.0,SSW,3.5,-,N/A,,Clear,210,2013-05-08 12:35:00
7:55 AM,62.8,56.8,81,30.09,10.0,SW,4.6,-,N/A,,Clear,220,2013-05-08 12:55:00
8:15 AM,64.9,57.9,78,30.10,10.0,SW,3.5,-,N/A,,Clear,230,2013-05-08 13:15:00
8:35 AM,66.6,58.1,74,30.11,10.0,WSW,4.6,-,N/A,,Clear,240,2013-05-08 13:35:00
8:55 AM,67.5,58.1,72,30.12,10.0,SW,4.6,-,N/A,,Clear,230,2013-05-08 13:55:00
9:15 AM,68.9,58.1,68,30.13,10.0,WSW,6.9,-,N/A,,Clear,240,2013-05-08 14:15:00
9:35 AM,70.3,58.5,66,30.13,10.0,SSW,3.5,-,N/A,,Clear,210,2013-05-08 14:35:00
9:55 AM,72.7,57.7,59,30.13,10.0,Calm,Calm,-,N/A,,Clear,0,2013-05-08 14:55:00
10:15 AM,73.9,55.8,53,30.13,10.0,Calm,Calm,-,N/A,,Clear,0,2013-05-08 15:15:00
10:35 AM,74.7,54.0,48,30.13,10.0,SSW,4.6,-,N/A,,Clear,210,2013-05-08 15:35:00
10:55 AM,75.7,54.7,48,30.13,10.0,Calm,Calm,-,N/A,,Clear,0,2013-05-08 15:55:00
11:15 AM,77.0,54.5,46,30.13,10.0,SSW,4.6,-,N/A,,Clear,200,2013-05-08 16:15:00
11:35 AM,77.9,54.9,45,30.13,10.0,SW,6.9,-,N/A,,Clear,220,2013-05-08 16:35:00
11:55 AM,78.4,54.1,43,30.13,10.0,SW,3.5,-,N/A,,Clear,230,2013-05-08 16:55:00
12:15 PM,78.4,54.0,43,30.12,10.0,SW,4.6,-,N/A,,Clear,220,2013-05-08 17:15:00
12:35 PM,79.2,54.5,42,30.11,10.0,SSW,5.8,-,N/A,,Clear,210,2013-05-08 17:35:00
12:55 PM,79.7,54.0,41,30.11,10.0,South,3.5,18.4,N/A,,Scattered Clouds,190,2013-05-08 17:55:00
1:15 PM,80.6,52.9,38,30.11,10.0,South,9.2,17.3,N/A,,Scattered Clouds,180,2013-05-08 18:15:00
1:35 PM,80.6,53.4,39,30.11,10.0,South,8.1,-,N/A,,Scattered Clouds,180,2013-05-08 18:35:00
1:55 PM,81.0,54.0,39,30.10,10.0,SSW,5.8,-,N/A,,Scattered Clouds,200,2013-05-08 18:55:00
2:15 PM,81.9,53.6,38,30.10,10.0,SSW,10.4,-,N/A,,Scattered Clouds,200,2013-05-08 19:15:00
2:35 PM,81.9,53.4,37,30.09,10.0,South,9.2,-,N/A,,Clear,190,2013-05-08 19:35:00
2:55 PM,82.8,52.7,35,30.08,10.0,South,8.1,-,N/A,,Clear,190,2013-05-08 19:55:00
3:15 PM,83.1,51.6,34,30.08,10.0,SSE,5.8,-,N/A,,Scattered Clouds,150,2013-05-08 20:15:00
3:35 PM,83.3,53.4,36,30.07,10.0,SE,8.1,-,N/A,,Scattered Clouds,130,2013-05-08 20:35:00
3:55 PM,84.0,53.8,35,30.06,10.0,SSE,6.9,-,N/A,,Mostly Cloudy,150,2013-05-08 20:55:00
4:15 PM,82.2,54.9,39,30.05,10.0,SSE,5.8,-,N/A,,Mostly Cloudy,160,2013-05-08 21:15:00
4:35 PM,83.5,53.2,35,30.05,10.0,SSE,8.1,-,N/A,,Mostly Cloudy,150,2013-05-08 21:35:00
4:55 PM,82.9,54.3,37,30.05,10.0,SSE,8.1,-,N/A,,Mostly Cloudy,160,2013-05-08 21:55:00
5:15 PM,82.6,55.8,40,30.05,10.0,South,5.8,-,N/A,,Scattered Clouds,180,2013-05-08 22:15:00
5:35 PM,82.4,54.9,39,30.04,10.0,South,4.6,-,N/A,,Scattered Clouds,170,2013-05-08 22:35:00
5:55 PM,82.8,55.0,38,30.04,10.0,South,6.9,-,N/A,,Scattered Clouds,180,2013-05-08 22:55:00
6:15 PM,82.4,54.1,38,30.04,10.0,SSE,6.9,-,N/A,,Scattered Clouds,160,2013-05-08 23:15:00
6:35 PM,81.7,54.7,39,30.04,10.0,South,8.1,-,N/A,,Scattered Clouds,190,2013-05-08 23:35:00
6:55 PM,80.6,55.9,43,30.04,10.0,SSE,5.8,-,N/A,,Scattered Clouds,160,2013-05-08 23:55:00
7:15 PM,79.0,57.0,47,30.03,10.0,SE,4.6,-,N/A,,Clear,140,2013-05-09 00:15:00
7:35 PM,76.8,57.4,51,30.03,10.0,SE,5.8,-,N/A,,Clear,140,2013-05-09 00:35:00
7:55 PM,75.4,58.6,56,30.04,10.0,NNW,3.5,-,N/A,,Clear,340,2013-05-09 00:55:00
8:15 PM,73.8,59.5,61,30.04,10.0,SSE,4.6,-,N/A,,Clear,160,2013-05-09 01:15:00
8:35 PM,73.4,59.5,62,30.04,10.0,SSE,4.6,-,N/A,,Clear,150,2013-05-09 01:35:00
8:55 PM,72.5,59.4,63,30.04,10.0,SSE,4.6,-,N/A,,Clear,160,2013-05-09 01:55:00
9:15 PM,71.6,59.7,66,30.04,10.0,SSE,4.6,-,N/A,,Clear,160,2013-05-09 02:15:00
9:35 PM,70.5,60.1,69,30.05,10.0,South,4.6,-,N/A,,Clear,170,2013-05-09 02:35:00
9:55 PM,69.8,60.1,71,30.06,10.0,South,4.6,-,N/A,,Clear,170,2013-05-09 02:55:00
10:15 PM,69.3,60.1,72,30.05,10.0,SSE,5.8,-,N/A,,Clear,160,2013-05-09 03:15:00
10:35 PM,68.9,60.3,74,30.05,10.0,South,5.8,-,N/A,,Clear,170,2013-05-09 03:35:00
11:15 PM,67.6,60.8,79,30.04,10.0,South,4.6,-,N/A,,Clear,180,2013-05-09 04:15:00
11:35 PM,67.6,60.4,78,30.04,10.0,South,6.9,-,N/A,,Clear,180,2013-05-09 04:35:00